Regional Weather Roundup
Issued by NWS

Home | Current Version | Previous Version | Graphics & Text | Print | Product List | Glossary On
Versions: 1 2 3 4 5 6 7 8 9 10 11 12 13 14 15 16 17 18 19 20 21 22 23 24 25 26 27 28 29 30 31 32 33 34 35 36 37 38 39 40 41 42 43 44 45 46 47 48 49 50
122
ASUS43 KMPX 031401
RWRMN
WEATHER ROUNDUP FOR MINNESOTA
NATIONAL WEATHER SERVICE TWIN CITIES/CHANHASSEN MN
800 AM CST SAT DEC 03 2016


NOTE: "FAIR" INDICATES FEW OR NO CLOUDS BELOW 12,000 FEET WITH NO
SIGNIFICANT WEATHER AND/OR OBSTRUCTIONS TO VISIBILITY. N/A MEANS
CURRENT SKY AND/OR WEATHER CONDITIONS ARE NOT AVAILABLE.

MNZ060>063-068>070-031500-
   Twin Cities Metro

CITY           SKY/WX    TMP DP  RH WIND       PRES   REMARKS
TWIN CITIES    CLOUDY    29  20  69 SW3       30.30F
ST PAUL        CLOUDY    29  23  78 CALM      30.32S
CRYSTAL        CLOUDY    29  19  66 S3        30.29S
BLAINE         CLOUDY    30  23  74 W5        30.29S WCI  25
LAKEVILLE      CLOUDY    27  21  80 W5        30.30S WCI  21
EDEN PRAIRIE   CLOUDY    29  20  69 SW5       30.29S WCI  24
SOUTH ST PAUL  CLOUDY    30  22  72 CALM      30.30F
LAKE ELMO      CLOUDY    30  27  86 SW3       30.31S
$$
MNZ001>005-007-008-013>017-022>024-027-028-031500-
   Northwest Minnesota

CITY           SKY/WX    TMP DP  RH WIND       PRES   REMARKS
BEMIDJI        CLOUDY    23  18  81 S6        30.21S WCI  16
HALLOCK        CLOUDY    28  25  86 S18       30.15F WCI  16
ROSEAU         CLOUDY    27  21  80 S9        30.18S WCI  17
WARROAD        CLOUDY    27  21  80 S7        30.19F WCI  19
CROOKSTON      CLOUDY    27  21  80 S14       30.21F WCI  15
FOSSTON        CLOUDY    21  18  86 S12       30.21S WCI   9
DETROIT LAKES  CLOUDY    25  21  86 S7        30.23R WCI  17
MOORHEAD       CLOUDY    27  19  74 S10       30.23S WCI  17
PARK RAPIDS    CLOUDY    24  15  68 S9        30.22R WCI  14
$$
MNZ006-009>011-018-025>026-031500-
   North Central Minnesota

CITY           SKY/WX    TMP DP  RH WIND       PRES   REMARKS
BAUDETTE       CLOUDY    26  20  77 S5        30.20F WCI  20
FLAG ISLAND    CLOUDY    28  23  80 S9        30.18S WCI  20
INTL FALLS     CLOUDY    24  19  81 CALM      30.23S
WASKISH        CLOUDY    25  19  80 S3        30.22S
BIG FORK       CLOUDY    27  19  74 CALM      30.23S
LONGVILLE      CLOUDY    25  19  80 S5        30.24S WCI  19
GRAND RAPIDS   CLOUDY    25  20  81 S3        30.25S
CRANE LAKE     CLOUDY    21  19  93 CALM      30.26S
ORR            CLOUDY    21  18  86 CALM      30.21S
COOK           CLOUDY    23  19  86 CALM      30.24S
$$
MNZ012-019>021-037-031500-
   Northeast Minnesota

CITY           SKY/WX    TMP DP  RH WIND       PRES   REMARKS
DULUTH         CLOUDY    26  23  88 W6        30.24S WCI  19
ELY            LGT SNOW  23  23 100 CALM      30.24R
HIBBING        CLOUDY    23  19  85 CALM      30.24S
EVELETH        CLOUDY    25  20  83 CALM      30.25S
DULUTH HARBOR  CLOUDY    30  27  86 SW3       30.29S
TWO HARBORS    CLOUDY    30  25  80 CALM      30.24S
SILVER BAY     CLOUDY    28  25  86 CALM      30.23S
GRAND MARAIS     N/A     30  24  78 NW5       30.26S WCI  25
G MARAIS ARPRT CLOUDY    21  18  86 CALM      30.21S
$$
MNZ029>031-032-039>041-046>048-054>057-064-031500-
   West Central Minnesota

CITY           SKY/WX    TMP DP  RH WIND       PRES   REMARKS
FERGUS FALLS   CLOUDY    25  18  74 S12       30.28S WCI  14
MORRIS         MOCLDY    25  19  80 SE6       30.24F WCI  18
ALEXANDRIA     CLOUDY    24  18  77 SW9       30.25S WCI  14
ELBOW LAKE     CLOUDY    24  19  78 S8        30.25S WCI  16
WADENA         CLOUDY    23  18  80 S9        30.23S WCI  13
GLENWOOD       CLOUDY    25  19  80 SW8       30.25F WCI  16
APPLETON       CLOUDY    27  19  74 SE3       30.25F
BENSON         PTCLDY    25  18  74 SW5       30.26F WCI  19
ORTONVILLE     CLOUDY    25  19  80 CALM      30.23F
MADISON        CLOUDY    28  23  80 SE7       30.24F WCI  21
WILLMAR        CLOUDY    27  19  74 SW3       30.28F
$$
MNZ033>034-036-042>043-049>051-058-059-031500-
   Central Minnesota

CITY           SKY/WX    TMP DP  RH WIND       PRES   REMARKS
ST CLOUD       CLOUDY    27  21  78 W6        30.28S WCI  20
PAYNESVILLE    CLOUDY    26  19  76 CALM      30.28F
AITKIN         CLOUDY    28  19  69 SW3       30.24S
PINE RIVER     CLOUDY    23  18  80 S5        30.27S WCI  17
BRAINERD       CLOUDY    25  19  78 SW9       30.26S WCI  15
STAPLES        CLOUDY    23  18  80 S5        30.25S WCI  17
LONG PRAIRIE   CLOUDY    25  19  80 SE5       30.26S WCI  19
LITTLE FALLS   CLOUDY    27  19  74 SW6       30.27S WCI  20
LITCHFIELD     CLOUDY    27  19  74 CALM      30.29S
BUFFALO        CLOUDY    28  22  76 SW6       30.30F WCI  22
MAPLE LAKE     CLOUDY    28  23  80 SW6       30.30S WCI  22
$$
MNZ037-044-045-052-053-031500-
   East Central Minnesota

CITY           SKY/WX    TMP DP  RH WIND       PRES   REMARKS
PRINCETON      CLOUDY    28  25  86 SW3       30.29S
MORA           CLOUDY    28  23  80 CALM      30.29S
CAMBRIDGE      CLOUDY    30  21  69 SW5       30.27S WCI  25
RUSH CITY      CLOUDY    28  25  86 CALM      30.28S
MOOSE LAKE     CLOUDY    28  25  86 CALM      30.24F
HINCKLEY       CLOUDY    30  27  86 S3        30.28R
CLOQUET        CLOUDY    27  21  80 CALM      30.25S
MCGREGOR       CLOUDY    27  23  86 CALM      30.26R
$$
MNZ071>073-080-081-089-090-097-098-031500-
   Southwest Minnesota

CITY           SKY/WX    TMP DP  RH WIND       PRES   REMARKS
MONTEVIDEO     CLOUDY    23  21  93 S3        30.27F
GRANITE FALLS  CLOUDY    28  22  78 E3        30.28F
CANBY          CLOUDY    28  24  86 CALM      30.24F
MARSHALL       CLOUDY    26  20  77 SE7       30.25F WCI  18
REDWOOD FALLS  CLOUDY    26  19  74 S3        30.28F
OLIVIA         PTCLDY    30  23  74 S6        30.28S WCI  24
PIPESTONE      CLEAR     25  23  93 SE6       30.21S WCI  18
WINDOM         CLOUDY    27  21  80 CALM      30.26S
WORTHINGTON    CLEAR     25  23  92 SE7       30.25S WCI  17
JACKSON        CLOUDY    28  21  74 CALM      30.27R
TRACY          CLOUDY    27  21  79 SE6       30.25F WCI  20
SLAYTON        CLOUDY    25  22  88 SE6       30.24F WCI  18
$$
MNZ065>067-074>077-082>085-091>093-031500-
   South Central Minnesota

CITY           SKY/WX    TMP DP  RH WIND       PRES   REMARKS
MANKATO        CLOUDY    28  21  75 W7        30.30  WCI  21
NEW ULM        MOCLDY    25  19  80 CALM      30.29F
ST JAMES       CLOUDY    28  21  74 CALM      30.29F
FAIRMONT       CLOUDY    28  21  75 CALM      30.30S
GLENCOE        CLOUDY    29  22  78 SW3       30.29S
FARIBAULT      CLOUDY    28  21  74 CALM      30.30S
OWATONNA       CLOUDY    28  25  86 CALM      30.30R
WASECA         CLOUDY    28  23  80 W3        30.31S
ALBERT LEA     CLOUDY    30  25  80 NW5       30.29S WCI  25
$$
MNZ078>079-086>088-094>096-031500-
   Southeast Minnesota

CITY           SKY/WX    TMP DP  RH WIND       PRES   REMARKS
ROCHESTER      CLOUDY    28  22  78 W6        30.28F WCI  22
RED WING       CLOUDY    30  21  69 CALM      30.30S
STANTON        CLOUDY    30  24  79 CALM      30.30R
DODGE CENTER   CLOUDY    27  23  86 CALM      30.28S
WINONA         CLOUDY    32  23  69 CALM      30.32F
AUSTIN         CLOUDY    28  21  74 W5        30.29S WCI  23
PRESTON        CLOUDY    28  24  84 W3        30.29F
$$
ABBREVIATIONS USED IN REMARKS
   TC - TEMPERATURES IN CELSIUS
  WCI - WIND CHILL INDEX
   HX - HEAT INDEX
  VSB - VISIBILITY
$$




USA.gov is the U.S. government's official web portal to all federal, state and local government web resources and services.